Showing default

FLOCK 4BE 31, 60488

Orbit data source: Space-Track

FLOCK 4BE 31, 60488 is a payload satellite owned by Planet (US) in SSO that was launched on Fri, 16 Aug 2024 UTC via an FALCON 9 launch vehicle from the Air Force Western Test Range (AFWTR). Payload-class satellites include a variety of spacecraft equipped with specific instruments for various scientific and technological missions. These include communications satellites like Starlink; space stations such as the ISS; scientific satellites like the Hubble; Earth observation satellites from companies like Planet Labs, Umbra, and HawkEye 360; GPS; miniature CubeSats for education and research; and military/defense satellites.

Loading next visibility...
Identifier
60488, 2024-149W
Orbit
SSO
Country
Flag of USUS
Related business
Manufacturer
Planet
Mission
Operational Commercial Imaging
Bus & Motor
CUBESAT 3U, Unknown motor
Mass
5.7 kg wet, 5.7 kg dry
Launch date (UTC)
2024-08-16 (2 years ago)
Launch vehicle
FALCON 9
Launch site
Air Force Western Test Range (AFWTR)
Object type
Payload
Rocket body
Debris
Shape & HBR
Box + 2 Pan, 1.0 m
Radar Cross Section
0.072 m², Medium (>0.1 m² and < 1m²)

Expand to show TLE details & history
Last TLE update: 11 hours ago

TLE from 11 hours ago
0 FLOCK 4BE 31
1 60488U 24149W   26131.96950257  .00013490  00000-0  31097-3 0  9992
2 60488  97.3797 216.7600 0003292  68.8208 291.3391 15.42701328 96792
Epoch: 2026-05-11T23:16Z
TLE epoch observation values (Epoch: 2026-05-11T23:16:05.022Z)
Latitude
0.00001°
Longitude
-2.01153°
Altitude
440.446 km
Speed
7.648 km/s
True Right ascension
14h 27m 02s
True Declination
0° 00' 00"
Sunlit
Object was in full shadow at epoch
Visualization orbit readout
Latitude
Unknown
Longitude
Unknown
Altitude
Unknown
Speed
Unknown
Apparent Right ascension
Unknown
Apparent Declination
Unknown
Sunlit
N/A
Visualization observer readout
Local Sidereal Time
18:16:38
Azimuth
Unknown
Elevation
Unknown
Doppler factor
Unknown
Orbital elements
Apogee altitude
437.318 km
Perigee altitude
432.832 km
Semi-major axis
6,813.212 km
Eccentricity
0.00033
Inclination
97.3797°
RAAN
216.76°
Arg. of periapsis
68.8208°
True anomaly
291.30396°
Mean anomaly
291.3391°
Eccentric anomaly
291.32153°
Mean motion
3.85936 °/min
Orbital period
93.28 mins
BSTAR
0.00031097
Loading maneuver chart data...
Computing Atmospheric mass density...
Loading historical data...
Loading historical data...
Loading historical data...
Loading historical data...
Loading historical data...
Loading historical data...
Loading historical data...

Documentation

Showing up to 5 results
|